DateTimeUTC,F1_A11,F1_S11,BsB_S11,BsG_S11,BsR_S11,BbsB_S11,BbsG_S11,BbsR_S11,BaB_A11,BaG_A11,BaR_A11,Tu_S11,T_S11,Uu_S11,U_S11,P_S11,T1_A11
2021-02-18T07:00:00Z,00000200,21000000,,,,,,,0000.21,-000.21,0000.26,16.5,23.4,,00.0,0636.1,31.0
2021-02-18T07:01:00Z,00000200,21000000,,,,,,,-000.07,0000.59,0000.48,16.5,23.4,,00.0,0636.1,31.0
2021-02-18T07:02:00Z,00000200,21000000,,,,,,,0000.14,-000.07,-000.08,16.5,23.4,,00.0,0636.1,31.0
2021-02-18T07:03:00Z,00000200,61000000,,,,,,,0001.17,0000.59,0000.20,16.5,23.4,,00.0,0636.1,31.0
2021-02-18T07:04:00Z,00000200,41000000,0000.63,0000.35,0000.25,0000.29,0000.15,0000.05,0000.09,0000.41,0000.43,16.6,23.1,,00.0,0636.8,31.0
2021-02-18T07:05:00Z,00000200,01000000,-000.14,0000.21,-000.22,-000.17,0000.20,0000.04,-000.12,0000.14,0000.45,16.7,23.1,,00.0,0636.8,31.0
2021-02-18T07:06:00Z,00000200,01000000,0000.37,-000.24,-000.01,0000.05,0000.03,0000.03,0000.63,0000.20,0000.24,16.8,23.1,,00.0,0636.8,31.0
2021-02-18T07:07:00Z,00000200,01000000,0000.02,0000.31,-000.16,0000.29,-000.06,0000.04,0000.34,0000.41,0000.10,16.9,23.1,,00.0,0636.8,31.0
2021-02-18T07:08:00Z,00000200,01000000,0000.21,0000.12,0000.26,0000.43,-000.05,0000.05,0000.44,-000.02,0000.12,17.0,23.2,,00.0,0636.8,31.0
2021-02-18T07:09:00Z,00000200,01000000,0000.44,-000.09,0000.02,-000.08,-000.03,-000.03,-000.13,0000.42,0000.37,17.0,23.2,,00.0,0636.7,31.0
2021-02-18T07:10:00Z,00000200,01000000,-000.22,0000.20,-000.41,-000.31,-000.02,0000.04,0000.26,0000.11,-000.42,17.0,23.2,,00.0,0636.7,31.0
2021-02-18T07:11:00Z,00000200,01000000,0000.65,0000.26,-000.17,0000.27,0000.03,0000.08,0000.05,-000.32,0000.31,17.0,23.2,,00.0,0636.7,31.0
2021-02-18T07:12:00Z,00000200,01000000,0000.19,0000.12,-000.14,-000.38,-000.02,-000.16,0000.08,0000.46,0000.08,17.0,23.2,,00.0,0636.7,31.0
2021-02-18T07:13:00Z,00000200,01000000,0000.60,0000.22,-000.22,0000.19,-000.22,0000.20,-000.45,-000.41,-000.05,16.9,23.1,,00.0,0636.8,31.0
2021-02-18T07:14:00Z,00000200,01000000,0000.53,0000.00,-000.22,-000.58,-000.21,-000.23,0000.21,0000.37,-000.18,16.9,23.1,,00.0,0636.8,31.0
2021-02-18T07:15:00Z,00000200,01000000,0000.16,0000.36,0000.22,-000.11,-000.16,0000.11,0000.38,-000.07,0000.12,16.9,23.1,,00.0,0636.8,31.0
2021-02-18T07:16:00Z,00000200,01000000,-000.67,0000.22,-000.17,0000.12,-000.18,0000.06,-000.12,-000.16,-000.23,16.8,23.1,,00.0,0636.8,31.0
2021-02-18T07:17:00Z,00000200,01000000,0000.01,0000.35,-000.22,0000.07,0000.12,0000.18,-000.08,0000.16,0000.45,16.8,23.1,,00.0,0636.7,31.0
2021-02-18T07:18:00Z,00000200,01000000,0000.55,0000.37,-000.06,0000.18,0000.16,0000.24,0000.49,0000.26,0000.10,16.8,23.1,,00.0,0636.6,31.0
2021-02-18T07:19:00Z,00000200,01000000,0000.32,0000.01,0000.07,0000.16,0000.02,0000.09,-000.03,0000.28,0000.16,16.8,23.0,,00.0,0636.6,31.0
2021-02-18T07:20:00Z,00000200,01000000,-000.20,0000.07,0000.08,0000.06,0000.06,0000.01,-000.12,-000.00,0000.07,16.8,23.0,,00.0,0636.6,31.0
2021-02-18T07:21:00Z,00000200,01000000,-000.15,0000.62,-000.12,-000.21,0000.09,0000.05,0000.43,0000.27,0000.06,16.9,23.1,,00.0,0636.6,31.0
2021-02-18T07:22:00Z,00000200,01000000,-000.47,0000.33,0000.11,0000.43,0000.08,0000.01,0000.06,0000.05,-000.10,17.0,23.1,,00.0,0636.6,31.0
2021-02-18T07:23:00Z,00000200,01000000,0000.04,0000.08,-000.19,0000.27,-000.09,-000.06,0000.16,-000.10,0000.13,17.0,23.1,,00.0,0636.6,31.0
2021-02-18T07:24:00Z,00000200,01000000,-000.68,-000.10,-000.04,0000.44,0000.08,0000.04,-000.08,0000.32,-000.31,17.1,23.2,,00.0,0636.6,31.0
2021-02-18T07:25:00Z,00000200,01000000,0000.38,0000.01,-000.09,-000.13,-000.18,-000.20,-000.68,-000.48,0000.41,17.1,23.1,,00.0,0636.6,31.0
2021-02-18T07:26:00Z,00000200,01000000,-000.17,0000.07,0000.03,0000.10,-000.06,0000.01,0000.29,-000.12,-000.28,17.0,23.2,,00.0,0636.7,31.0
2021-02-18T07:27:00Z,00000200,01000000,-000.04,0000.46,0000.02,0000.64,-000.15,-000.15,0000.00,-000.12,-000.17,17.0,23.1,,00.0,0636.7,31.0
2021-02-18T07:28:00Z,00000200,01000000,0000.12,0000.13,-000.14,0000.03,0000.10,0000.10,-000.18,0000.18,0000.04,17.0,23.1,,00.0,0636.6,31.0
2021-02-18T07:29:00Z,00000200,01000000,-000.51,0000.29,-000.09,0000.20,-000.10,0000.11,0000.09,-000.18,0000.02,16.9,23.1,,00.0,0636.6,31.0
2021-02-18T07:30:00Z,00000200,01000000,0000.60,0000.01,-000.24,-000.32,0000.04,-000.02,0000.15,0000.48,0000.13,16.9,23.1,,00.0,0636.5,31.0
2021-02-18T07:31:00Z,00000200,01000000,0000.47,-000.12,-000.25,0000.47,-000.01,0000.28,0000.00,-000.31,-000.18,16.9,23.1,,00.0,0636.5,31.0
2021-02-18T07:32:00Z,00000200,01000000,0000.74,0000.42,-000.20,0000.19,-000.28,0000.22,0000.07,0000.07,0000.26,16.8,23.1,,00.0,0636.5,31.0
2021-02-18T07:33:00Z,00000200,01000000,-000.18,0000.04,-000.02,-000.68,0000.09,-000.03,-000.13,0000.02,0000.08,16.8,23.0,,00.0,0636.6,31.0
2021-02-18T07:34:00Z,00000200,01000000,0000.00,0000.17,-000.20,-000.25,-000.12,-000.06,-000.07,-000.30,-000.14,16.8,23.0,,00.0,0636.6,31.0
2021-02-18T07:35:00Z,00000200,01000000,-000.33,0000.11,-000.16,0000.08,-000.18,0000.19,0000.18,0000.27,0000.17,16.8,23.0,,00.0,0636.5,31.0
2021-02-18T07:36:00Z,00000200,01000000,0000.55,0000.24,0000.14,-000.08,0000.14,0000.07,0000.24,0000.09,-000.03,16.9,23.1,,00.0,0636.6,31.0
2021-02-18T07:37:00Z,00000200,01000000,0000.16,0000.33,-000.06,0000.25,-000.29,0000.07,-000.14,-000.02,0000.10,17.0,23.1,,00.0,0636.6,31.0
2021-02-18T07:38:00Z,00000200,01000000,0000.07,-000.00,-000.11,-000.03,0000.30,0000.08,-000.04,-000.10,-000.10,17.1,23.2,,00.0,0636.5,31.0
2021-02-18T07:39:00Z,00000200,01000000,-000.22,0000.00,0000.11,-000.12,-000.03,0000.20,0000.06,0000.17,0000.08,17.1,23.2,,00.0,0636.6,31.0
2021-02-18T07:40:00Z,00000200,01000000,0000.13,-000.01,-000.13,0000.14,0000.21,-000.07,-000.00,0000.13,-000.16,17.1,23.2,,00.0,0636.6,31.0
2021-02-18T07:41:00Z,00000200,01000000,0000.13,-000.07,-000.15,-000.14,0000.23,0000.18,-000.30,-000.17,0000.34,17.1,23.2,,00.0,0636.6,31.0
2021-02-18T07:42:00Z,00000200,01000000,0000.48,0000.31,-000.13,0000.07,0000.06,0000.35,0000.22,0000.12,-000.38,17.1,23.2,,00.0,0636.7,31.0
2021-02-18T07:43:00Z,00000200,01000000,0000.06,0000.21,0000.21,0000.42,-000.19,0000.10,-000.31,-000.24,-000.03,17.0,23.2,,00.0,0636.7,31.0
2021-02-18T07:44:00Z,00000200,01000000,-000.63,0000.45,-000.07,0000.44,0000.20,0000.05,0000.21,0000.14,0000.16,17.0,23.1,,00.0,0636.7,31.0
2021-02-18T07:45:00Z,00000200,01000000,0000.33,-000.01,0000.29,-000.06,0000.07,0000.33,0000.04,-000.47,-000.25,17.0,23.1,,00.0,0636.7,31.0
2021-02-18T07:46:00Z,00000200,01000000,-000.10,-000.17,-000.04,0000.08,-000.08,0000.09,-000.12,0000.23,0000.05,16.9,23.1,,00.0,0636.7,31.0
2021-02-18T07:47:00Z,00000200,01000000,0000.06,0000.08,-000.11,0000.19,-000.01,-000.22,-000.02,0000.20,0000.10,16.9,23.1,,00.0,0636.7,31.0
2021-02-18T07:48:00Z,00000200,01000000,0000.34,0000.35,-000.11,0000.03,0000.06,0000.15,0000.43,-000.30,-000.01,16.9,23.1,,00.0,0636.6,31.0
2021-02-18T07:49:00Z,00000200,01000000,-000.42,0000.14,-000.16,0000.19,-000.08,-000.20,0000.07,0000.24,-000.32,16.9,23.1,,00.0,0636.6,31.0
2021-02-18T07:50:00Z,00000200,01000000,-000.29,-000.00,0000.02,-000.33,0000.20,0000.24,0000.01,0000.71,0000.18,16.9,23.1,,00.0,0636.5,31.0
2021-02-18T07:51:00Z,00000200,01000000,-000.03,-000.12,-000.21,0000.38,-000.00,0000.13,0000.42,-000.47,0000.61,17.0,23.1,,00.0,0636.5,31.0
2021-02-18T07:52:00Z,00000200,01000000,0000.07,0000.42,-000.29,0000.30,-000.11,-000.05,-000.20,0000.42,0000.15,17.1,23.1,,00.0,0636.4,31.0
2021-02-18T07:53:00Z,00000200,01000000,0000.21,0000.09,-000.04,0000.30,0000.06,-000.09,0000.45,0000.20,0000.11,17.2,23.2,,00.0,0636.4,31.0
2021-02-18T07:54:00Z,00000200,01000000,0000.21,0000.17,0000.05,-000.01,-000.18,-000.00,-000.19,0000.17,0000.10,17.3,23.2,,00.0,0636.3,31.0
2021-02-18T07:55:00Z,00000200,01000000,-000.11,0000.34,-000.16,0000.05,0000.32,-000.07,0000.24,0000.13,0000.13,17.3,23.3,,00.0,0636.3,31.0
2021-02-18T07:56:00Z,00000200,01000000,0000.49,0000.07,-000.17,0000.15,0000.05,0000.01,-000.04,0000.24,-000.34,17.3,23.3,,00.0,0636.2,31.0
2021-02-18T07:57:00Z,00000200,41000000,,,,,,,-000.52,-000.68,-000.16,17.3,23.3,,00.0,0636.1,31.0
2021-02-18T07:58:00Z,00000200,61000000,,,,,,,0000.18,-000.00,0000.20,17.0,23.4,,00.0,0635.2,31.0
2021-02-18T07:59:00Z,00000200,21000000,,,,,,,-000.28,0000.01,-000.07,17.0,23.5,,00.0,0635.2,31.0
